Regional Weather Roundup
Issued by NWS Goodland, KS

Home | Current Version | Previous Version | Graphics & Text | Print | Product List | Glossary On
Versions: 1 2 3 4 5 6 7 8 9 10 11 12 13 14 15 16 17 18 19 20 21 22 23 24 25 26 27 28 29 30 31 32 33 34 35 36 37 38 39 40 41 42 43 44 45 46 47 48 49 50
000
ASUS43 KGLD 310659
RWRGLD

GOODLAND FORECAST AREA HOURLY WEATHER ROUNDUP
NATIONAL WEATHER SERVICE GOODLAND KS
100 AM MDT SUN AUG 31 2014

...OFFICIAL OBSERVATIONS...

CITY           SKY/WX    TMP DP  RH WIND       PRES   REMARKS
GOODLAND KS    CLOUDY    68  55  63 S14G30    29.95R THUNDER
HILL CITY KS   PTCLDY    73  57  57 S9        29.84F
IMPERIAL NEB   MOCLDY    71  56  58 NW5       29.84F
MCCOOK NEB     PTCLDY    71  55  56 S13       29.84R
AKRON CO       CLOUDY    67  49  52 E7        29.91F
BURLINGTON CO  LGT RAIN  72  49  44 SE8G26    29.92F
LIMON CO       NOT AVBL
$$

...UNOFFICIAL OBSERVATIONS...

CITY           SKY/WX    TMP DP  RH WIND       PRES   REMARKS
COLBY KS       MOCLDY    73  59  60 SW17G24   29.93R
GOVE KS          N/A     68  32  26 CALM        N/A
NORTON KS      CLEAR     73  54  49 S10G16    29.83F
SHARON SPRINGS   N/A     72  59  62 W12G20      N/A
WAKEENEY KS      N/A     73  51  46 MISG        N/A
KIT CARSON CO    N/A     66  55  69 CALM        N/A
YUMA CO          N/A     69  52  54 E9          N/A
$$



USA.gov is the U.S. government's official web portal to all federal, state and local government web resources and services.